EW9959 Weather Reports


Display with metric or nautical units.
time (UTC)temp
F
wind
direction
speed
MPH
gust
MPH
rain 1hr
in
rain 24hr
in
rain mn
in
humidity
%
barometer
mb
20210928021407 62 163 0.0 0.0 0.00 0.00 0.00 99 992.0
20210928020906 62 169 0.0 0.0 0.00 0.00 0.00 99 992.0
20210928020405 62 180 0.0 0.0 0.00 0.00 0.00 99 991.9
20210928015927 62 180 0.0 0.0 0.00 0.00 0.00 99 991.9
20210928015435 62 147 0.0 0.0 0.00 0.00 0.00 99 991.7
20210928014921 63 158 0.0 0.0 0.00 0.00 0.00 99 991.7
20210928014422 63 158 0.0 0.0 0.00 0.00 0.00 99 991.7
20210928013911 63 112 0.0 0.0 0.00 0.00 0.00 99 991.7
20210928013407 63 171 0.0 0.0 0.00 0.00 0.00 99 991.7
20210928012905 63 157 0.0 0.0 0.00 0.00 0.00 99 991.6
20210928012405 63 118 0.0 0.0 0.00 0.00 0.00 99 991.6
20210928011904 64 190 0.0 0.0 0.00 0.00 0.00 99 991.7
20210928011405 64 112 0.0 0.0 0.00 0.00 0.00 99 991.7
20210928010905 64 131 0.0 0.0 0.00 0.00 0.00 99 991.7
20210928010405 64 188 0.0 0.0 0.00 0.00 0.00 99 991.7
20210928005906 64 166 0.0 0.0 0.00 0.00 0.00 99 991.7
20210928005405 65 112 0.0 0.0 0.00 0.00 0.00 99 991.6
20210928004905 65 122 0.0 0.0 0.00 0.00 0.00 99 991.6
20210928004408 65 159 0.0 0.0 0.00 0.00 0.00 99 991.6
20210928003905 66 120 0.0 0.0 0.00 0.00 0.00 99 991.6
20210928003405 66 112 0.0 0.0 0.00 0.00 0.00 99 991.6
20210928002905 66 179 0.0 0.0 0.00 0.00 0.00 99 991.4
20210928002405 66 103 0.0 0.0 0.00 0.00 0.00 99 991.4
20210928001904 67 225 0.0 0.0 0.00 0.00 0.00 99 991.5
20210928001405 67 101 0.0 0.0 0.00 0.00 0.00 99 991.5
20210928000905 68 116 0.0 0.0 0.00 0.00 0.00 99 991.5
20210928000405 68 148 0.0 0.0 0.00 0.00 0.00 99 991.4
20210927235907 68 180 0.0 0.0 0.00 0.00 0.00 99 991.4
20210927235405 69 113 0.0 0.0 0.00 0.00 0.00 99 991.3
20210927234905 69 152 0.0 0.0 0.00 0.00 0.00 97 991.3
20210927234406 69 172 0.0 0.0 0.00 0.00 0.00 97 991.3
20210927233904 70 180 0.0 0.0 0.00 0.00 0.00 95 991.3
20210927233404 70 169 0.0 0.0 0.00 0.00 0.00 95 991.3
20210927232905 71 167 0.0 0.0 0.00 0.00 0.00 94 991.2
20210927232405 71 180 0.0 0.0 0.00 0.00 0.00 93 991.2
20210927231905 71 154 0.0 0.0 0.00 0.00 0.00 92 991.3
20210927231404 72 180 0.0 0.0 0.00 0.00 0.00 91 991.3
20210927230905 72 202 0.0 0.0 0.00 0.00 0.00 90 991.3
20210927230404 73 126 0.0 0.0 0.00 0.00 0.00 88 991.2
20210927225905 73 180 0.0 0.0 0.00 0.00 0.00 86 991.2
20210927225404 74 158 0.0 0.0 0.00 0.00 0.00 85 991.4
20210927224905 74 171 0.0 0.0 0.00 0.00 0.00 82 991.4
20210927224405 75 180 0.0 0.0 0.00 0.00 0.00 80 991.4
20210927223905 75 180 0.0 0.0 0.00 0.00 0.00 78 991.3
20210927223406 76 180 0.0 0.0 0.00 0.00 0.00 77 991.3
20210927222905 76 188 0.0 0.0 0.00 0.00 0.00 75 991.4
20210927222405 76 193 0.0 0.0 0.00 0.00 0.00 73 991.4
20210927221905 77 180 0.0 0.0 0.00 0.00 0.00 75 991.5
20210927221405 77 180 0.0 0.0 0.00 0.00 0.00 77 991.5
20210927220904 77 193 0.0 0.0 0.00 0.00 0.00 74 991.5
20210927220405 78 201 0.0 0.0 0.00 0.00 0.00 72 991.3
20210927215905 78 206 0.0 0.0 0.00 0.00 0.00 71 991.3
20210927215405 79 180 0.0 0.0 0.00 0.00 0.00 70 991.3
20210927214905 79 194 0.0 0.0 0.00 0.00 0.00 69 991.3
20210927214405 80 164 0.0 0.0 0.00 0.00 0.00 66 991.3
20210927213905 80 177 0.0 0.0 0.00 0.00 0.00 69 991.3
20210927213404 81 193 0.0 0.0 0.00 0.00 0.00 69 991.3
20210927212904 81 188 0.0 0.0 0.00 0.00 0.00 68 991.5
20210927212405 82 202 0.0 1.0 0.00 0.00 0.00 66 991.5
20210927211904 83 202 0.0 1.0 0.00 0.00 0.00 65 991.7
20210927211404 83 209 1.0 1.0 0.00 0.00 0.00 63 991.7
20210927210905 83 99 1.0 1.0 0.00 0.00 0.00 64 991.7
20210927210404 82 202 1.0 2.0 0.00 0.00 0.00 67 991.6
20210927205906 83 192 1.0 1.0 0.00 0.00 0.00 66 991.6
20210927205410 81 142 1.0 1.0 0.00 0.00 0.00 68 991.8
20210927204905 81 34 1.0 2.0 0.00 0.00 0.00 67 991.8
20210927204405 81 113 2.0 2.0 0.00 0.00 0.00 62 991.8
20210927203906 82 81 1.0 1.0 0.00 0.00 0.00 62 991.8
20210927203404 82 148 1.0 2.0 0.00 0.00 0.00 60 991.8
20210927202905 81 127 1.0 2.0 0.00 0.00 0.00 64 991.9
20210927202405 83 171 0.0 1.0 0.00 0.00 0.00 61 991.9
20210927201904 86 158 2.0 2.0 0.00 0.00 0.00 54 991.9
20210927201404 82 51 3.0 3.0 0.00 0.00 0.00 60 991.9
20210927200904 83 194 0.0 1.0 0.00 0.00 0.00 65 991.9
20210927200404 83 90 1.0 1.0 0.00 0.00 0.00 64 992.1
20210927195905 82 168 0.0 0.0 0.00 0.00 0.00 66 992.1
20210927195405 83 249 0.0 1.0 0.00 0.00 0.00 63 992.1
20210927194907 82 117 1.0 2.0 0.00 0.00 0.00 61 992.1
20210927194405 84 109 1.0 2.0 0.00 0.00 0.00 63 992.1
20210927193904 83 125 2.0 2.0 0.00 0.00 0.00 63 992.2
20210927193405 83 128 2.0 2.0 0.00 0.00 0.00 62 992.2
20210927192905 82 188 2.0 2.0 0.00 0.00 0.00 59 992.4
20210927192404 84 167 1.0 2.0 0.00 0.00 0.00 65 992.4
20210927191905 82 110 0.0 2.0 0.00 0.00 0.00 68 992.4
20210927191405 82 132 2.0 2.0 0.00 0.00 0.00 66 992.5
20210927190905 81 92 0.0 1.0 0.00 0.00 0.00 63 992.5
20210927190404 83 193 1.0 1.0 0.00 0.00 0.00 65 992.9
20210927185905 83 234 0.0 0.0 0.00 0.00 0.00 68 992.9
20210927185405 82 24 1.0 2.0 0.00 0.00 0.00 66 992.9
20210927184906 82 100 1.0 2.0 0.00 0.00 0.00 60 992.9
20210927184408 82 147 1.0 2.0 0.00 0.00 0.00 66 992.9
20210927183908 82 86 3.0 5.0 0.00 0.00 0.00 63 993.1
20210927183405 85 270 2.0 2.0 0.00 0.00 0.00 61 993.1
20210927182905 82 102 2.0 3.0 0.00 0.00 0.00 65 993.4
20210927182404 82 51 2.0 2.0 0.00 0.00 0.00 69 993.4
20210927181904 83 72 2.0 2.0 0.00 0.00 0.00 63 993.4
20210927181404 83 81 2.0 5.0 0.00 0.00 0.00 61 993.4
20210927180904 82 78 2.0 3.0 0.00 0.00 0.00 62 993.4
20210927180404 83 57 2.0 6.0 0.00 0.00 0.00 61 993.6
20210927175904 82 109 2.0 2.0 0.00 0.00 0.00 66 993.6
20210927175405 83 177 1.0 2.0 0.00 0.00 0.00 61 993.8
20210927174905 82 112 1.0 2.0 0.00 0.00 0.00 60 993.8
20210927174405 80 124 2.0 2.0 0.00 0.00 0.00 67 993.8
20210927173907 83 206 2.0 3.0 0.00 0.00 0.00 61 993.9
20210927173405 82 112 2.0 3.0 0.00 0.00 0.00 62 993.9
20210927172905 82 85 1.0 3.0 0.00 0.00 0.00 63 994.0
20210927172405 83 87 1.0 2.0 0.00 0.00 0.00 63 994.0
20210927171904 82 124 2.0 3.0 0.00 0.00 0.00 61 994.1
20210927171405 83 104 1.0 3.0 0.00 0.00 0.00 62 994.1
20210927170905 81 103 2.0 3.0 0.00 0.00 0.00 67 994.1
20210927170404 82 76 1.0 2.0 0.00 0.00 0.00 65 994.2
20210927165905 83 169 1.0 3.0 0.00 0.00 0.00 63 994.2
20210927165404 83 110 2.0 3.0 0.00 0.00 0.00 65 994.3
20210927164905 81 82 2.0 3.0 0.00 0.00 0.00 67 994.3
20210927164405 82 121 2.0 2.0 0.00 0.00 0.00 68 994.5
20210927163904 80 171 2.0 3.0 0.00 0.00 0.00 69 994.6
20210927163405 81 89 1.0 2.0 0.00 0.00 0.00 71 994.6
20210927162904 84 117 1.0 2.0 0.00 0.00 0.00 66 994.6
20210927162404 80 104 2.0 2.0 0.00 0.00 0.00 72 994.6
20210927161904 81 151 2.0 3.0 0.00 0.00 0.00 72 994.8
20210927161405 80 90 1.0 2.0 0.00 0.00 0.00 71 994.8
20210927160904 81 174 1.0 2.0 0.00 0.00 0.00 72 994.8
20210927160404 79 96 0.0 2.0 0.00 0.00 0.00 76 994.8
20210927155904 81 107 1.0 2.0 0.00 0.00 0.00 72 994.8
20210927155404 83 213 1.0 2.0 0.00 0.00 0.00 69 994.8
20210927154905 78 82 2.0 2.0 0.00 0.00 0.00 76 994.8
20210927154404 78 135 0.0 1.0 0.00 0.00 0.00 78 994.8
20210927153904 78 83 0.0 2.0 0.00 0.00 0.00 76 994.9
20210927153405 77 180 0.0 2.0 0.00 0.00 0.00 78 994.9
20210927152907 77 126 1.0 3.0 0.00 0.00 0.00 78 994.9
20210927152404 76 86 1.0 3.0 0.00 0.00 0.00 77 994.9
20210927151904 75 112 2.0 3.0 0.00 0.00 0.00 82 995.0
20210927151404 75 104 0.0 2.0 0.00 0.00 0.00 84 995.0
20210927150904 74 108 1.0 2.0 0.00 0.00 0.00 82 995.0
20210927150405 73 145 0.0 2.0 0.00 0.00 0.00 83 995.1
20210927145904 74 169 0.0 2.0 0.00 0.00 0.00 83 995.1
20210927145404 72 93 0.0 1.0 0.00 0.00 0.00 88 995.2
20210927144905 73 134 0.0 2.0 0.00 0.00 0.00 85 995.2
20210927144404 72 59 1.0 2.0 0.00 0.00 0.00 85 995.2
20210927143904 70 79 2.0 2.0 0.00 0.00 0.00 89 995.2
20210927143404 69 105 0.0 2.0 0.00 0.00 0.00 92 995.2
20210927142905 69 56 0.0 2.0 0.00 0.00 0.00 92 995.1
20210927142404 69 116 0.0 0.0 0.00 0.00 0.00 96 995.1
20210927141904 68 101 1.0 1.0 0.00 0.00 0.00 96 995.1
20210927141404 65 99 0.0 0.0 0.00 0.00 0.00 99 995.1
20210927140904 64 109 0.0 0.0 0.00 0.00 0.00 99 995.1
20210927140405 63 94 0.0 0.0 0.00 0.00 0.00 99 995.3
20210927135904 63 112 0.0 0.0 0.00 0.00 0.00 99 995.3
20210927135405 62 73 0.0 0.0 0.00 0.00 0.00 99 995.1
20210927134905 61 107 0.0 0.0 0.00 0.00 0.00 99 995.1
20210927134405 61 61 0.0 0.0 0.00 0.00 0.00 99 995.2
20210927133905 60 93 0.0 0.0 0.00 0.00 0.00 99 995.3
20210927133404 60 100 0.0 0.0 0.00 0.00 0.00 99 995.3
20210927132905 60 68 0.0 0.0 0.00 0.00 0.00 99 995.2
20210927132411 59 73 0.0 0.0 0.00 0.00 0.00 99 995.2
20210927131905 58 103 0.0 0.0 0.00 0.00 0.00 99 995.0
20210927131404 57 104 0.0 0.0 0.00 0.00 0.00 99 995.0
20210927130905 57 112 0.0 0.0 0.00 0.00 0.00 99 995.0
20210927130405 56 149 0.0 0.0 0.00 0.00 0.00 99 995.0
20210927125904 56 112 0.0 0.0 0.00 0.00 0.00 99 995.0
20210927125404 55 112 0.0 0.0 0.00 0.00 0.00 99 995.0
20210927124904 55 158 0.0 0.0 0.00 0.00 0.00 99 995.0
20210927124405 54 158 0.0 0.0 0.00 0.00 0.00 99 995.0
20210927123904 54 112 0.0 0.0 0.00 0.00 0.00 99 994.9
20210927123404 54 112 0.0 0.0 0.00 0.00 0.00 99 994.9
20210927122905 54 158 0.0 0.0 0.00 0.00 0.00 99 994.9
20210927122406 54 112 0.0 0.0 0.00 0.00 0.00 99 994.9
20210927121906 53 112 0.0 0.0 0.00 0.00 0.00 99 994.8
20210927121405 54 112 0.0 0.0 0.00 0.00 0.00 99 994.8
20210927120905 53 129 0.0 0.0 0.00 0.00 0.00 99 994.8
20210927120404 53 112 0.0 0.0 0.00 0.00 0.00 99 994.8
20210927115905 53 158 0.0 0.0 0.00 0.00 0.00 99 994.8
20210927115404 53 144 0.0 0.0 0.00 0.00 0.00 99 994.7
20210927114904 53 145 0.0 0.0 0.00 0.00 0.00 99 994.7
20210927114405 53 112 0.0 0.0 0.00 0.00 0.00 99 994.7
20210927113904 53 135 0.0 0.0 0.00 0.00 0.00 99 994.7
20210927113404 53 135 0.0 0.0 0.00 0.00 0.00 99 994.7
20210927112905 53 150 0.0 0.0 0.00 0.00 0.00 99 994.5
20210927112404 53 171 0.0 0.0 0.00 0.00 0.00 99 994.5
20210927111904 53 146 0.0 0.0 0.00 0.00 0.00 99 994.5
20210927111406 53 124 0.0 0.0 0.00 0.00 0.00 99 994.5
20210927110904 53 167 0.0 0.0 0.00 0.00 0.00 99 994.5
20210927110405 53 119 0.0 0.0 0.00 0.00 0.00 99 994.5
20210927105904 53 152 0.0 0.0 0.00 0.00 0.00 99 994.5
20210927105404 54 112 0.0 0.0 0.00 0.00 0.00 99 994.2
20210927104904 54 99 0.0 0.0 0.00 0.00 0.00 99 994.2
20210927104405 54 153 0.0 0.0 0.00 0.00 0.00 99 994.2
20210927103904 54 113 0.0 0.0 0.00 0.00 0.00 99 994.1
20210927103405 54 112 0.0 0.0 0.00 0.00 0.00 99 994.1
20210927102906 54 112 0.0 0.0 0.00 0.00 0.00 99 994.0
20210927102406 54 95 0.0 0.0 0.00 0.00 0.00 99 994.0
20210927101906 54 158 0.0 0.0 0.00 0.00 0.00 99 993.9
20210927101406 54 139 0.0 0.0 0.00 0.00 0.00 99 993.9
20210927100908 54 132 0.0 0.0 0.00 0.00 0.00 99 993.9
20210927100406 54 169 0.0 0.0 0.00 0.00 0.00 99 993.9
20210927095906 54 154 0.0 0.0 0.00 0.00 0.00 99 993.9
20210927095405 54 132 0.0 0.0 0.00 0.00 0.00 99 993.9
20210927094905 54 90 0.0 0.0 0.00 0.00 0.00 99 993.9
20210927094406 54 124 0.0 0.0 0.00 0.00 0.00 99 993.9
20210927093905 54 127 0.0 0.0 0.00 0.00 0.00 99 993.7
20210927093405 54 180 0.0 0.0 0.00 0.00 0.00 99 993.7
20210927092906 54 161 0.0 0.0 0.00 0.00 0.00 99 993.8
20210927092407 54 154 0.0 0.0 0.00 0.00 0.00 99 993.8
20210927091907 55 112 0.0 0.0 0.00 0.00 0.00 99 993.7
20210927091405 54 135 0.0 0.0 0.00 0.00 0.00 99 993.7
20210927090907 55 112 0.0 0.0 0.00 0.00 0.00 99 993.7
20210927090406 54 113 0.0 0.0 0.00 0.00 0.00 99 993.7
20210927085905 54 162 0.0 0.0 0.00 0.00 0.00 99 993.7
20210927085405 54 139 0.0 0.0 0.00 0.00 0.00 99 993.6
20210927084906 55 123 0.0 0.0 0.00 0.00 0.00 99 993.6
20210927084405 55 112 0.0 0.0 0.00 0.00 0.00 99 993.6
20210927083905 55 113 0.0 0.0 0.00 0.00 0.00 99 993.7
20210927083406 55 112 0.0 0.0 0.00 0.00 0.00 99 993.7
20210927082905 55 112 0.0 0.0 0.00 0.00 0.00 99 993.6
20210927082405 55 124 0.0 0.0 0.00 0.00 0.00 99 993.6
20210927081905 55 168 0.0 0.0 0.00 0.00 0.00 99 993.6
20210927081405 55 145 0.0 0.0 0.00 0.00 0.00 99 993.6
20210927080906 55 128 0.0 0.0 0.00 0.00 0.00 99 993.6
20210927080406 55 112 0.0 0.0 0.00 0.00 0.00 99 993.6
20210927075907 55 158 0.0 0.0 0.00 0.00 0.00 99 993.6
20210927075405 55 133 0.0 0.0 0.00 0.00 0.00 99 993.7
20210927074905 55 147 0.0 0.0 0.00 0.00 0.00 99 993.7
20210927074406 55 158 0.0 0.0 0.00 0.00 0.00 99 993.7
20210927073905 55 175 0.0 0.0 0.00 0.00 0.00 99 993.8
20210927073406 55 164 0.0 0.0 0.00 0.00 0.00 99 993.8
20210927072905 55 135 0.0 0.0 0.00 0.00 0.00 99 993.9
20210927072405 55 158 0.0 0.0 0.00 0.00 0.00 99 993.9
20210927071905 55 112 0.0 0.0 0.00 0.00 0.00 99 994.1
20210927071406 55 131 0.0 0.0 0.00 0.00 0.00 99 994.1
20210927070905 55 155 0.0 0.0 0.00 0.00 0.00 99 994.1
20210927070406 55 123 0.0 0.0 0.00 0.00 0.00 99 994.1
20210927065906 55 168 0.0 0.0 0.00 0.00 0.00 99 994.1
20210927065406 55 154 0.0 0.0 0.00 0.00 0.00 99 994.0
20210927064905 55 150 0.0 0.0 0.00 0.00 0.00 99 994.0
20210927064406 55 157 0.0 0.0 0.00 0.00 0.00 99 994.0
20210927063906 55 135 0.0 0.0 0.00 0.00 0.00 99 993.9
20210927063406 56 122 0.0 0.0 0.00 0.00 0.00 99 993.9
20210927062905 56 158 0.0 0.0 0.00 0.00 0.00 99 993.7
20210927062405 56 158 0.0 0.0 0.00 0.00 0.00 99 993.7
20210927061905 56 123 0.0 0.0 0.00 0.00 0.00 99 993.8
20210927061406 56 138 0.0 0.0 0.00 0.00 0.00 99 993.8
20210927060906 56 145 0.0 0.0 0.00 0.00 0.00 99 993.8
20210927060406 56 158 0.0 0.0 0.00 0.00 0.00 99 993.6
20210927055907 56 123 0.0 0.0 0.00 0.00 0.00 99 993.6
20210927055406 56 158 0.0 0.0 0.00 0.00 0.00 99 993.8
20210927054906 56 148 0.0 0.0 0.00 0.00 0.00 99 993.8
20210927054405 56 152 0.0 0.0 0.00 0.00 0.00 99 993.8
20210927053905 56 115 0.0 0.0 0.00 0.00 0.00 99 993.8
20210927053405 56 136 0.0 0.0 0.00 0.00 0.00 99 993.8
20210927052906 56 125 0.0 0.0 0.00 0.00 0.00 99 993.8
20210927052406 56 112 0.0 0.0 0.00 0.00 0.00 99 993.8
20210927051905 56 124 0.0 0.0 0.00 0.00 0.00 99 993.7
20210927051406 56 135 0.0 0.0 0.00 0.00 0.00 99 993.7
20210927050906 56 112 0.0 0.0 0.00 0.00 0.00 99 993.7
20210927050406 57 118 0.0 0.0 0.00 0.00 0.00 99 993.9
20210927045906 57 187 0.0 0.0 0.00 0.00 0.00 99 993.9
20210927045407 57 146 0.0 0.0 0.00 0.00 0.00 99 993.9
20210927044907 57 125 0.0 0.0 0.00 0.00 0.00 99 993.9
20210927044406 57 164 0.0 0.0 0.00 0.00 0.00 99 993.9
20210927043907 57 105 0.0 0.0 0.00 0.00 0.00 99 993.9
20210927043405 57 184 0.0 0.0 0.00 0.00 0.00 99 993.9
20210927042905 57 157 0.0 0.0 0.00 0.00 0.00 99 993.9
20210927042405 57 122 0.0 0.0 0.00 0.00 0.00 99 993.9
20210927041906 57 139 0.0 0.0 0.00 0.00 0.00 99 993.9
20210927041407 58 112 0.0 0.0 0.00 0.00 0.00 99 993.9
20210927040906 58 112 0.0 0.0 0.00 0.00 0.00 99 993.9
20210927040405 58 158 0.0 0.0 0.00 0.00 0.00 99 993.8
20210927035907 58 112 0.0 0.0 0.00 0.00 0.00 99 993.8
20210927035405 58 115 0.0 0.0 0.00 0.00 0.00 99 993.7
20210927034905 58 131 0.0 0.0 0.00 0.00 0.00 99 993.7
20210927034405 58 161 0.0 0.0 0.00 0.00 0.00 99 993.7
20210927033905 58 147 0.0 0.0 0.00 0.00 0.00 99 993.7
20210927033405 58 145 0.0 0.0 0.00 0.00 0.00 99 993.7
20210927032906 58 152 0.0 0.0 0.00 0.00 0.00 99 993.6
20210927032405 58 177 0.0 0.0 0.00 0.00 0.00 99 993.6
20210927031905 59 170 0.0 0.0 0.00 0.00 0.00 99 993.6
20210927031405 59 180 0.0 0.0 0.00 0.00 0.00 99 993.6
20210927030905 59 190 0.0 0.0 0.00 0.00 0.00 99 993.6
20210927030405 59 158 0.0 0.0 0.00 0.00 0.00 99 993.6
20210927025906 59 158 0.0 0.0 0.00 0.00 0.00 99 993.6
20210927025405 59 158 0.0 0.0 0.00 0.00 0.00 99 993.5
20210927024906 59 158 0.0 0.0 0.00 0.00 0.00 99 993.5
20210927024405 59 158 0.0 0.0 0.00 0.00 0.00 99 993.5
20210927023905 59 169 0.0 0.0 0.00 0.00 0.00 99 993.5
20210927023406 60 169 0.0 0.0 0.00 0.00 0.00 99 993.5
20210927022905 60 180 0.0 0.0 0.00 0.00 0.00 99 993.5
20210927022405 60 173 0.0 0.0 0.00 0.00 0.00 99 993.5
20210927021905 60 180 0.0 0.0 0.00 0.00 0.00 99 993.3